Location: Bushrod
(6.3500°N, 10.7833°W)
Time: 13:23:34
(UTC+00:00)

GPS 2-04 Rocket1 - Pass Details

Date: 17 September 2019
Orbit: 419 x 552 km, 35.6° (Epoch: 21 October)

Event Time Altitude Azimuth Distance (km) Brightness Sun altitude
Rises 19:42:22 0° 209° (SSW) 2,484 6.5 -15.8°
Reaches altitude 10° 19:44:50 10° 193° (SSW) 1,635 5.3 -16.4°
Enters shadow 19:47:25 22° 150° (SSE) 1,112 4.1 -17.1°
